Theta_e
342 344 345 344 342 344 341 344 343 346 340 339 340 338 339 345 349 352 351 352 353 351 355 356 354 356 355 355 356 355 356 357 357 356 355 357 356 357 357 360 360 360 359 360 358 356 359 360 360 360 363 365 363 364 367 365 364 367 365 367 364 361 359
342 343 344 345 344 345 346 345 346 347 346 339 341 339 339 344 349 351 352 352 354 352 355 357 356 356 355 355 355 356 356 356 359 359 358 358 359 357 358 358 359 360 359 361 361 358 363 360 360 360 362 365 364 365 365 365 365 365 364 364 365 364 364
336 341 341 344 346 344 346 345 346 348 348 343 341 340 339 344 348 351 354 352 354 354 355 357 358 357 357 355 354 356 356 356 358 358 356 356 357 357 357 357 359 360 361 360 360 364 365 361 361 362 361 363 364 364 364 364 364 365 364 362 362 362 361
340 341 342 347 346 349 351 353 349 348 348 348 351 342 340 345 348 352 356 353 354 356 354 357 359 358 358 355 354 355 356 356 357 357 356 356 356 354 355 356 357 357 359 359 361 364 362 362 364 362 367 361 363 365 364 364 365 365 365 364 361 363 362
339 340 340 342 345 347 350 350 346 343 348 352 355 348 348 348 351 352 356 356 356 356 356 357 359 360 359 358 356 356 356 356 356 356 356 355 355 352 352 355 354 354 356 359 360 360 358 360 361 362 363 361 364 364 363 364 362 364 366 365 361 364 363
335 336 339 341 344 345 346 349 349 349 346 350 350 349 352 354 348 348 348 353 357 358 358 357 358 359 358 358 356 356 356 356 356 356 355 354 353 351 351 352 353 353 355 355 359 358 361 359 359 361 361 361 363 363 363 364 363 364 366 363 361 362 363
334 338 340 341 341 344 344 348 351 351 350 348 349 350 351 353 351 349 351 355 359 358 358 359 357 358 359 358 356 356 354 355 355 355 355 354 354 351 350 351 352 351 354 355 354 357 360 357 357 359 359 359 359 360 360 361 361 363 365 362 360 362 362
332 334 339 338 341 343 345 344 348 353 352 351 350 352 352 351 348 350 352 354 354 351 349 351 350 348 351 355 357 354 355 355 355 355 355 353 353 351 350 350 352 351 351 353 353 355 356 357 358 358 358 356 356 355 358 359 359 362 362 363 361 363 363
330 333 335 336 337 340 342 342 346 349 351 350 352 353 352 350 352 352 353 352 354 352 351 352 353 354 352 347 352 355 356 356 356 355 354 353 351 352 351 350 351 352 351 350 352 354 355 356 356 357 357 356 355 355 356 358 359 360 361 362 361 360 360
327 328 331 332 334 336 338 340 342 343 346 344 346 347 349 351 352 352 351 352 352 352 354 357 355 356 353 354 351 354 355 355 356 356 354 352 351 349 349 350 350 353 351 349 350 352 354 355 355 356 356 355 355 354 355 357 358 358 359 360 361 360 359
323 325 327 329 330 333 334 335 337 338 341 344 345 347 348 350 349 348 350 353 351 353 355 354 353 354 353 351 350 350 353 354 356 355 354 352 351 349 348 347 349 350 350 349 347 349 352 354 355 354 355 355 354 355 353 357 356 355 355 358 360 360 359
323 324 324 326 329 330 333 335 336 338 338 339 341 342 344 347 349 350 351 353 355 351 352 355 358 357 353 351 354 349 353 351 351 355 354 353 350 348 348 347 347 348 350 349 347 346 348 352 354 354 354 354 353 356 353 355 355 354 353 355 357 359 358
323 323 324 325 327 328 328 329 333 337 339 339 341 341 342 344 346 349 351 352 353 355 354 356 355 354 355 354 351 352 355 353 353 352 351 351 351 350 346 345 347 347 349 350 348 346 345 348 352 354 354 354 353 355 355 354 355 355 355 354 354 355 356
324 323 324 325 325 326 326 327 328 330 332 335 339 342 342 343 344 345 348 349 352 353 353 352 351 352 354 352 350 349 352 356 355 354 352 353 353 349 347 346 347 343 348 350 348 347 345 346 348 351 354 354 353 353 355 354 354 354 356 356 355 353 353
319 322 323 323 324 325 325 325 326 328 329 330 333 337 340 341 342 344 345 347 349 351 353 356 352 351 351 350 348 348 350 354 357 357 358 358 355 353 351 351 350 348 347 349 349 349 348 345 347 347 351 354 353 353 354 355 355 356 356 356 355 355 353
319 320 321 321 322 323 325 326 326 326 328 328 328 331 336 339 339 341 343 344 347 349 351 353 352 351 350 352 352 354 353 354 354 356 357 358 354 353 352 351 351 352 350 350 347 348 348 347 344 346 347 351 353 353 354 355 356 357 352 353 356 355 355
318 319 320 321 321 322 324 325 326 326 326 328 328 329 333 337 339 341 343 344 345 349 351 350 348 349 352 352 353 353 354 354 354 353 353 355 356 354 353 354 353 351 352 353 348 347 346 347 345 344 346 347 351 352 353 355 356 349 339 340 346 356 354
317 318 319 320 321 321 322 323 324 325 325 326 328 327 328 332 334 338 342 342 343 345 347 346 345 344 345 347 347 348 350 352 353 353 353 353 352 354 354 355 354 352 350 349 348 350 347 346 344 343 344 346 348 351 353 353 353 338 336 337 338 348 356
316 317 318 319 320 321 321 322 323 324 326 326 326 327 327 329 331 331 336 342 341 342 341 341 342 342 343 344 343 342 343 345 347 351 352 353 354 355 355 356 354 350 349 351 350 348 346 345 347 344 343 344 346 348 351 352 345 335 333 334 335 335 349
317 317 318 319 319 319 319 321 323 325 325 324 325 329 330 331 330 331 333 336 340 338 338 338 338 340 340 341 341 342 342 343 345 346 347 352 353 354 355 354 351 353 352 352 350 349 349 347 346 347 346 343 343 346 349 351 345 332 329 330 331 333 339
316 317 318 317 317 318 318 319 321 323 325 324 325 325 329 330 331 331 330 331 333 335 335 336 336 336 337 337 339 341 342 343 343 344 347 348 352 351 351 350 350 352 354 353 352 349 347 347 347 348 351 349 346 342 345 349 340 330 326 325 326 329 335
315 317 317 318 318 318 317 318 321 321 324 328 323 323 326 330 332 331 330 330 332 333 332 333 334 335 335 335 336 338 341 343 343 344 345 347 349 351 350 350 351 352 353 353 354 353 351 350 350 348 348 349 351 348 342 343 332 328 326 323 324 327 340
313 314 317 319 319 318 320 319 320 323 327 323 321 321 323 329 329 329 330 329 330 332 331 331 330 331 334 335 336 337 338 341 343 344 344 345 348 347 350 349 350 351 353 353 353 353 352 351 351 351 350 349 350 350 350 346 338 326 320 321 321 325 340
313 313 314 315 315 316 318 320 320 322 322 319 320 320 326 328 328 327 327 328 328 331 331 331 330 331 332 333 335 337 337 338 342 343 343 342 343 346 348 350 350 350 353 352 351 353 354 353 352 352 352 350 349 350 351 352 340 323 318 314 318 328 339
313 313 314 314 314 314 318 321 322 321 322 320 319 321 323 323 324 324 324 327 326 330 329 330 331 331 331 332 333 335 337 337 339 340 341 342 343 345 347 347 348 350 351 352 352 351 352 353 352 352 352 352 352 357 356 348 344 331 328 319 313 322 335
312 313 313 314 315 317 320 321 318 317 318 318 319 321 322 323 323 326 325 324 326 328 327 329 331 331 332 332 332 333 334 337 339 338 338 338 343 347 349 351 350 349 350 351 352 351 352 352 352 351 351 352 351 352 350 350 350 347 326 324 315 314 333
314 314 313 314 319 323 316 316 318 316 316 317 319 320 322 323 324 323 324 324 322 325 324 329 332 332 333 332 332 332 332 332 335 336 337 337 342 346 348 351 351 351 350 350 350 352 352 352 352 352 352 352 353 351 350 352 351 350 328 318 315 313 320
313 314 314 322 324 320 316 316 316 315 316 316 318 321 321 321 323 323 324 322 322 323 325 329 331 332 331 332 332 332 331 332 334 336 336 338 342 342 340 343 345 347 349 351 351 350 351 351 351 351 351 352 352 355 351 355 354 354 335 321 316 314 312
311 312 313 313 313 317 317 314 314 314 315 317 319 320 320 320 321 322 323 321 323 324 326 326 328 329 329 331 333 333 332 333 333 332 333 336 343 339 337 338 340 342 345 346 349 348 347 347 350 351 351 351 351 352 353 352 355 343 349 326 313 311 308
313 313 312 313 314 314 317 313 315 314 315 317 318 319 320 319 319 320 321 320 322 324 326 325 323 324 325 330 332 330 332 333 332 330 330 336 338 335 335 336 338 341 342 346 349 347 346 346 347 348 348 349 351 354 351 351 352 349 344 342 319 311 309
311 311 312 312 312 316 315 313 313 315 316 316 317 317 318 318 318 319 319 319 322 324 324 324 325 325 325 325 328 329 330 329 328 329 330 336 334 333 334 335 337 337 340 345 343 340 341 343 344 343 344 346 346 346 349 353 352 353 350 339 332 318 313
311 311 311 312 312 314 315 314 315 314 314 315 316 315 318 317 317 316 317 320 322 321 321 324 324 324 324 324 325 327 328 327 326 327 329 332 332 334 335 334 335 336 337 336 336 338 339 340 340 339 339 338 340 344 348 350 350 351 353 351 348 335 322
310 311 311 311 313 315 313 314 312 313 314 314 315 315 316 315 317 317 318 319 319 319 320 321 323 325 324 322 323 324 326 326 325 326 328 328 332 334 334 333 334 334 335 334 333 334 336 335 336 336 336 336 337 337 339 343 349 351 351 351 351 350 347
309 311 312 313 314 314 312 312 311 312 313 314 314 315 316 316 316 317 317 318 319 319 320 322 323 322 321 322 322 324 325 325 329 328 327 329 327 326 329 332 334 332 331 330 331 331 331 331 332 332 333 334 335 334 334 335 339 346 345 344 342 342 346
310 311 311 311 312 314 310 311 312 312 313 313 313 313 314 314 315 316 315 316 317 317 317 319 322 322 320 321 321 321 326 329 327 327 327 324 325 327 327 328 330 331 331 332 332 332 331 328 327 332 333 334 334 333 332 332 333 338 329 330 317 321 328
309 310 310 310 311 311 311 314 312 312 312 311 312 313 313 313 314 315 316 316 316 317 316 318 318 318 319 320 321 322 324 326 326 324 326 325 324 325 326 333 323 323 329 329 332 327 318 315 325 329 329 328 330 332 331 331 334 323 312 306 303 303 302
308 309 308 310 309 310 311 311 313 312 312 311 312 312 312 312 313 314 315 316 317 318 317 316 317 318 318 320 320 321 323 323 322 323 322 323 324 325 325 325 326 314 311 316 322 317 311 305 303 305 309 321 323 325 321 320 314 307 304 302 302 301 300
309 308 310 310 309 310 310 310 310 310 310 310 311 310 311 312 312 312 313 315 317 318 318 318 317 316 317 318 319 321 322 322 323 325 323 323 324 322 322 321 322 324 316 311 307 307 305 303 303 303 304 305 309 319 323 316 309 304 301 300 299 300 299
Wind_Speed
4 2 1 2 4 4 4 3 2 2 5 9 9 14 12 12 12 12 13 11 11 11 8 10 11 9 9 8 7 7 6 5 6 6 7 7 7 6 6 6 7 6 5 5 5 6 6 5 6 6 5 4 5 5 4 4 4 3 3 2 5 5 5
3 3 2 2 3 3 2 2 1 2 2 6 9 13 11 12 12 13 13 12 11 13 10 10 11 9 9 6 6 7 6 6 6 5 5 6 6 6 6 5 7 6 6 6 5 6 4 4 7 6 5 4 4 4 4 3 3 3 3 2 3 4 3
4 5 5 5 4 4 2 1 2 3 3 3 8 11 11 10 13 14 13 13 12 11 9 9 10 10 8 6 6 7 6 6 6 7 6 7 6 7 6 5 5 6 6 6 6 5 4 5 5 6 5 4 4 4 4 4 3 3 3 3 2 3 2
5 4 3 1 5 4 5 3 5 8 6 7 8 1 8 6 15 13 13 16 14 12 12 9 9 10 8 8 7 6 7 6 7 7 6 6 6 6 7 6 5 5 5 6 6 5 5 5 4 5 6 4 4 4 4 4 4 3 4 3 3 3 3
9 7 6 7 7 6 5 4 7 3 2 3 1 3 3 7 4 5 11 16 16 14 14 11 9 8 8 9 7 6 7 7 7 6 6 5 6 5 7 7 7 6 5 4 5 6 5 5 5 5 5 4 4 4 5 4 4 3 4 4 4 3 4
8 7 6 6 6 7 8 6 3 5 2 7 8 9 5 4 4 9 7 4 0 10 12 11 10 8 10 9 8 8 7 6 6 6 7 6 7 7 6 6 8 6 6 7 4 5 5 7 6 5 5 5 5 5 5 5 5 4 4 4 4 3 5
7 4 4 6 8 8 8 4 2 4 9 9 6 5 6 5 7 6 5 5 4 5 0 5 4 7 9 8 8 8 10 9 7 7 7 6 7 9 6 6 7 7 6 6 5 5 5 6 7 6 6 5 4 6 5 5 5 5 5 5 5 4 4
8 7 6 8 7 9 7 4 3 4 7 7 6 0 5 3 5 3 5 7 10 11 10 6 4 2 9 4 9 7 10 10 8 7 6 8 6 9 8 7 7 7 5 8 7 6 6 6 5 6 6 5 5 4 6 6 6 6 5 5 5 4 4
9 9 10 10 10 9 9 9 7 4 8 8 5 3 6 7 7 6 5 6 9 10 7 3 5 4 1 7 11 8 8 10 9 8 7 8 6 8 9 8 7 7 7 7 7 6 6 6 6 7 7 6 6 6 5 7 7 6 6 6 6 5 4
12 12 11 11 10 10 10 8 6 8 10 10 7 5 5 6 7 8 9 7 4 4 5 6 3 3 4 2 11 12 8 10 9 10 9 8 7 7 8 8 7 7 8 7 6 7 7 7 7 6 7 8 7 8 6 7 7 7 7 7 7 7 6
10 10 10 12 10 8 11 11 10 10 8 7 6 5 6 8 7 7 6 6 6 5 4 4 2 3 4 2 6 12 4 4 8 11 11 9 8 8 8 7 8 8 8 8 7 7 7 7 7 6 7 9 8 7 7 7 7 7 7 7 7 8 8
10 9 8 9 9 9 9 8 8 9 9 9 9 8 8 8 8 7 5 3 4 5 6 5 5 3 2 5 6 8 2 3 2 0 6 11 10 10 8 8 6 9 8 8 8 6 8 8 8 8 7 7 8 6 7 6 7 7 7 7 6 7 7
10 9 8 8 8 8 9 10 10 10 10 9 9 10 9 8 8 7 7 10 9 7 6 4 5 5 3 5 7 7 5 3 3 2 3 2 2 3 3 4 8 7 9 9 9 7 6 8 9 8 8 8 8 7 6 6 6 6 6 6 6 6 7
13 11 10 8 8 10 11 10 10 10 10 10 9 7 8 8 8 7 9 9 8 6 5 4 4 5 7 7 3 7 9 1 2 2 2 1 1 0 1 4 8 5 5 9 10 10 7 8 10 9 9 9 9 8 6 6 6 5 5 6 6 6 6
11 11 11 12 10 9 10 11 9 10 11 11 10 9 8 7 7 6 8 10 9 7 6 3 5 5 7 8 5 4 7 4 1 2 2 3 1 1 1 1 2 4 8 5 9 9 11 7 9 9 9 9 10 9 8 7 8 6 6 6 7 6 6
13 12 12 11 10 9 9 9 10 9 8 9 9 8 7 7 7 8 9 10 8 7 6 5 5 4 4 4 3 2 2 3 1 1 2 2 1 1 2 2 1 1 3 8 8 8 10 10 6 9 10 10 10 9 8 8 7 10 13 11 8 8 7
12 11 10 9 8 9 9 9 8 8 9 7 8 8 6 4 4 6 8 8 8 6 7 7 8 8 6 6 4 3 2 3 3 2 3 2 1 1 1 1 3 2 3 7 11 10 6 10 11 7 9 11 10 11 10 9 9 15 15 15 15 10 9
12 10 10 9 9 7 8 9 9 9 8 8 8 10 9 8 8 6 6 8 9 8 7 7 6 7 8 8 8 7 7 6 5 4 3 2 2 2 1 2 3 6 6 4 1 2 6 8 8 10 8 10 10 11 11 10 12 16 17 17 16 14 10
10 9 8 8 8 7 8 7 6 7 7 7 8 8 9 9 8 10 6 7 8 6 6 6 5 5 7 7 7 7 6 7 7 6 6 5 4 2 2 1 4 5 3 3 5 5 4 4 5 7 8 8 11 11 11 10 14 16 18 18 19 18 14
9 8 7 8 8 7 5 4 5 6 6 7 7 6 7 7 8 8 9 5 6 8 6 6 6 6 6 7 7 6 6 6 6 6 6 5 3 3 2 3 3 3 4 5 4 3 2 3 3 4 6 6 6 9 11 11 13 17 17 18 20 20 17
9 7 7 7 7 5 4 4 4 4 5 6 6 5 4 7 7 6 7 8 7 7 7 6 6 6 6 6 5 5 5 6 7 6 5 5 3 1 0 0 2 4 5 5 3 4 3 3 3 3 3 5 7 5 7 9 14 16 18 18 19 20 17
10 8 8 7 6 5 5 5 5 5 4 4 6 6 5 5 5 5 5 5 6 7 6 5 5 6 5 5 6 5 5 5 5 6 6 5 4 3 1 1 2 2 1 2 3 2 4 4 3 4 4 4 5 6 8 8 13 16 18 19 19 20 13
9 9 9 8 7 6 4 4 5 5 4 6 8 8 7 4 7 6 6 6 5 5 5 6 7 8 8 8 9 9 8 7 6 7 6 6 5 4 3 3 2 2 2 2 1 2 4 4 5 4 6 6 5 6 6 7 9 11 16 17 18 13 9
9 8 9 8 6 5 3 3 4 5 7 8 8 9 7 7 7 7 6 6 6 5 6 6 7 6 6 7 7 6 6 5 4 3 3 4 5 6 5 4 3 4 3 4 4 3 3 4 4 5 5 6 7 6 6 6 15 17 3 9 14 15 12
8 8 8 8 5 4 3 4 6 5 7 8 9 7 7 8 8 7 6 6 6 5 6 5 5 5 5 5 5 5 3 3 4 4 5 5 5 4 5 5 4 4 4 4 4 4 4 4 5 5 5 5 6 7 5 8 6 14 10 13 12 10 8
7 6 6 6 5 5 5 6 7 7 8 8 7 8 8 8 7 6 6 6 5 5 6 5 4 4 3 4 5 5 6 4 4 5 7 7 5 3 4 3 4 4 3 3 3 4 5 5 5 6 6 6 5 4 7 7 11 15 16 8 6 11 8
6 6 6 6 8 7 6 5 6 7 6 5 6 7 6 7 6 6 6 6 5 6 7 5 3 4 2 3 3 5 6 6 4 5 6 7 6 4 4 4 4 4 4 5 5 4 5 5 5 5 4 5 5 5 6 7 8 6 5 6 8 11 12
7 7 5 6 9 6 5 7 7 6 6 5 5 4 4 5 5 4 5 6 5 6 6 6 6 3 4 3 2 3 6 6 7 6 5 4 4 4 6 6 5 4 4 5 5 4 4 4 4 5 4 4 5 5 6 6 7 5 8 14 15 14 16
6 5 5 5 7 7 6 6 6 6 6 5 5 4 4 4 4 4 5 5 7 8 6 7 7 7 7 4 1 3 3 5 7 8 7 7 3 3 6 6 6 5 5 6 5 3 4 5 5 4 4 6 7 7 8 6 6 8 5 7 9 9 9
5 5 5 6 7 5 4 4 4 4 4 4 5 5 5 4 4 4 4 4 6 6 6 7 7 6 7 6 1 2 3 3 6 7 8 8 5 6 6 7 6 5 5 4 3 3 4 4 5 5 5 6 6 5 3 4 5 5 8 6 10 12 14
5 4 5 5 6 3 2 3 3 3 3 4 5 5 4 4 4 5 4 4 4 5 6 5 5 5 5 7 5 2 1 3 4 7 7 6 6 6 7 7 7 7 6 5 6 6 6 6 6 7 7 6 6 6 7 6 4 5 7 12 12 13 13
5 4 4 4 4 2 2 2 2 3 4 4 4 4 4 4 4 5 4 5 4 4 5 4 5 5 7 7 7 6 3 3 4 5 7 7 7 7 5 5 6 5 5 6 5 5 5 5 6 6 6 7 7 7 7 6 6 7 6 6 9 10 13
4 4 4 4 4 2 3 2 3 3 3 4 3 3 4 4 4 4 4 5 5 5 4 4 4 4 4 6 7 7 6 4 3 4 6 6 6 5 4 5 4 5 5 5 6 5 4 4 4 6 6 6 6 7 8 8 7 6 6 5 6 6 8
2 3 4 4 4 4 4 3 1 2 2 2 4 5 6 6 7 8 8 8 8 8 7 5 4 4 4 5 6 7 7 5 7 7 6 3 5 6 6 6 5 4 3 5 5 5 5 4 4 5 6 6 6 5 6 7 8 7 4 5 6 8 8
4 4 4 4 4 4 3 1 1 1 3 4 4 5 5 6 7 8 8 8 8 8 8 8 7 6 5 5 5 7 7 5 3 3 3 3 3 4 5 6 7 7 6 3 2 2 5 5 5 6 5 5 6 6 7 7 8 8 4 8 8 8 7
3 4 5 4 3 2 0 0 1 3 4 4 4 4 4 5 5 6 7 6 6 7 7 8 7 6 5 5 5 6 7 5 2 2 3 3 5 5 4 6 8 7 6 6 6 8 6 5 4 6 5 6 7 6 7 7 8 11 15 15 13 12 8
2 4 4 2 1 0 0 3 4 5 4 4 4 4 4 4 4 5 7 8 8 9 9 8 7 6 5 6 5 6 8 8 8 4 2 3 4 3 3 6 6 9 11 11 11 9 11 11 12 13 11 6 6 7 10 12 13 14 13 13 13 12 12
6 4 2 1 0 2 4 4 4 4 4 4 4 4 4 3 4 6 8 8 8 10 11 11 9 7 6 5 5 6 6 6 7 6 5 4 1 2 5 6 7 6 7 9 10 13 13 12 13 14 15 12 7 6 7 8 7 8 10 11 12 13 13
Wind_Direction
159 130 99 134 134 131 122 108 101 26 193 161 166 168 163 158 159 162 165 171 174 178 175 171 177 177 181 182 179 185 181 175 165 162 157 161 164 163 164 169 168 172 171 176 189 190 197 197 173 182 192 179 183 181 167 172 170 189 178 182 154 170 181
111 110 105 94 76 66 59 72 19 71 333 179 163 170 173 157 161 164 164 172 175 179 177 173 174 180 186 184 181 180 182 178 168 161 158 158 161 165 170 169 168 177 172 180 179 199 201 194 169 180 184 183 178 174 164 168 179 179 179 176 150 176 176
27 4 19 24 52 54 42 31 35 15 3 258 171 169 179 161 167 163 163 170 173 176 181 175 174 179 183 188 179 187 182 175 168 168 168 170 167 169 171 171 170 177 182 179 181 186 177 173 169 176 181 184 178 176 172 173 187 180 176 168 170 187 177
116 76 50 42 38 21 30 31 38 29 26 42 350 254 173 169 170 164 164 171 170 173 181 178 176 178 180 184 186 186 187 184 180 176 177 169 173 168 166 177 182 178 166 184 186 177 171 163 172 173 185 180 179 177 177 182 191 187 179 171 185 195 205
61 54 34 27 19 17 12 48 67 68 204 51 328 90 71 66 71 149 166 171 170 175 180 176 179 179 182 179 187 191 189 187 184 183 181 176 177 168 172 175 183 180 188 181 174 171 160 162 173 172 183 179 184 184 188 186 191 189 178 185 190 196 203
66 55 41 26 27 32 27 77 141 204 248 50 20 16 13 51 89 91 72 59 164 181 171 172 178 180 183 186 189 187 187 189 185 184 185 184 178 184 181 176 177 179 177 194 169 177 164 170 170 178 187 184 186 195 188 190 190 190 177 188 204 203 202
67 59 44 46 36 36 48 76 161 32 53 68 24 357 17 40 73 73 62 63 60 36 265 147 180 181 185 186 195 184 188 190 188 186 187 192 181 187 189 180 176 178 175 181 186 181 157 178 170 172 183 189 188 190 192 193 195 192 176 189 208 215 196
52 56 62 61 52 53 53 45 24 39 90 96 130 265 76 54 91 89 95 82 61 50 352 345 136 40 342 277 197 195 186 194 189 190 187 196 183 189 187 186 178 182 168 177 186 185 173 170 174 176 179 192 206 206 192 192 195 193 180 186 204 211 203
54 47 56 53 49 55 51 31 20 48 97 93 40 21 69 62 60 68 88 85 99 123 157 216 356 30 73 320 296 202 193 184 189 192 194 199 197 189 190 188 181 181 180 180 180 183 183 179 177 177 180 192 204 215 209 195 196 195 187 192 197 205 215
47 45 46 49 47 54 65 50 17 38 63 68 54 50 67 84 77 74 69 72 68 115 133 126 123 138 92 347 281 264 188 187 183 189 198 203 207 201 191 188 187 178 187 182 182 183 190 184 188 174 186 194 201 213 206 201 196 195 190 191 194 201 211
55 48 42 47 42 48 68 69 42 26 26 73 81 49 42 62 85 95 105 125 128 97 56 51 39 86 114 118 271 276 153 172 186 188 190 203 206 210 204 194 187 181 185 188 188 187 182 189 191 186 187 198 203 209 209 199 199 195 195 195 197 198 204
69 61 50 49 41 43 61 73 83 76 51 31 41 39 38 53 69 82 78 72 113 121 130 136 139 150 180 189 199 264 271 130 105 203 202 196 201 209 208 205 199 185 186 185 194 190 185 182 192 194 194 200 202 204 211 196 199 201 201 200 198 201 205
85 69 59 57 56 50 59 58 60 67 68 57 40 42 36 38 47 55 71 70 64 72 81 131 154 151 122 60 346 307 297 118 119 111 22 42 67 23 332 247 209 195 192 188 194 196 190 190 186 195 197 201 201 206 208 206 199 203 205 206 208 203 203
93 85 73 60 49 49 54 54 50 53 63 60 57 53 48 29 28 37 55 55 65 64 77 82 84 108 119 105 47 328 306 339 90 85 121 290 322 100 56 19 349 309 214 188 195 199 201 194 194 190 194 200 203 208 200 203 209 208 211 209 210 212 212
86 82 78 62 51 43 50 51 45 52 53 51 50 51 58 52 38 30 54 57 42 38 30 37 70 55 78 104 133 224 267 293 64 113 103 106 349 264 136 36 326 349 332 256 197 197 206 204 197 195 192 197 200 204 203 199 207 208 209 213 219 218 218
90 83 74 69 60 43 37 47 52 48 57 56 48 49 47 47 48 52 59 57 45 42 30 32 53 87 102 117 150 208 277 306 48 61 92 93 90 20 330 289 164 237 346 346 294 216 195 209 198 197 197 195 197 199 202 205 205 209 210 209 214 222 227
87 83 78 74 64 49 33 29 33 41 42 47 48 36 36 43 50 57 72 76 72 48 35 32 40 40 52 65 45 21 14 11 24 20 44 54 80 7 330 298 339 34 33 28 12 332 271 206 206 199 198 199 195 199 203 204 207 204 207 211 213 215 223
75 72 77 72 64 50 41 34 25 28 30 33 46 37 27 29 29 40 58 72 75 68 52 40 36 43 38 41 40 32 27 20 10 15 20 18 2 12 38 10 66 78 67 67 355 299 329 301 234 210 194 197 198 201 205 209 206 198 203 208 212 213 217
69 68 68 75 64 58 47 34 25 15 25 37 37 48 31 21 24 21 34 83 84 76 60 55 41 46 49 42 39 31 27 27 23 18 14 15 347 305 249 176 108 105 137 190 191 183 231 258 302 266 220 191 196 204 207 211 208 201 200 205 209 211 213
84 76 70 71 69 58 45 37 17 11 23 43 32 44 59 32 29 20 17 39 82 75 62 52 45 45 48 46 39 24 12 17 26 23 7 1 16 2 23 108 146 177 211 237 230 176 203 262 305 338 314 263 209 201 209 212 211 206 204 206 207 209 207
102 102 94 85 76 58 41 27 8 10 20 41 30 22 64 61 36 28 27 23 42 61 55 43 42 42 46 44 38 30 14 14 21 10 2 353 352 26 316 215 201 189 221 264 326 1 305 272 246 253 295 312 285 239 206 213 210 207 209 210 210 213 207
113 105 99 101 97 71 38 4 355 355 14 50 29 13 18 61 59 48 36 20 51 62 54 42 32 36 37 35 24 22 15 9 15 5 349 340 340 352 333 306 260 265 241 282 308 260 250 266 280 273 263 263 283 280 251 226 201 202 208 210 214 215 212
92 96 111 113 103 90 48 4 349 357 30 36 18 9 2 34 51 40 27 24 27 57 57 48 37 23 21 18 13 7 4 5 6 354 350 336 332 336 339 327 308 296 307 298 290 294 298 299 282 271 269 270 271 281 281 277 247 207 202 211 220 218 220
76 76 75 80 76 76 54 11 359 28 47 35 13 11 21 27 33 32 27 19 10 28 40 46 42 29 22 12 4 349 354 349 348 333 309 320 324 324 318 317 312 307 311 303 316 313 288 281 276 278 279 280 284 286 306 341 14 19 19 244 227 206 211
62 68 78 76 63 57 43 37 31 37 48 33 12 10 29 25 26 25 17 12 2 24 30 27 36 32 23 9 349 339 329 343 344 337 321 310 310 313 312 308 305 312 325 317 313 297 291 287 291 287 285 281 284 303 39 65 291 273 242 189 197 208 235
60 54 64 71 64 55 61 51 36 33 41 30 14 15 26 16 12 12 13 0 359 22 19 9 25 14 24 3 346 341 339 342 345 337 326 317 307 313 299 295 305 308 309 296 276 280 272 265 262 271 281 286 288 287 131 187 223 238 245 254 206 189 203
77 67 57 49 52 46 38 44 48 44 36 24 26 23 16 9 9 359 355 358 5 15 352 337 4 356 7 0 349 346 341 336 327 318 321 320 327 338 342 331 306 300 300 289 285 260 263 267 261 260 264 273 272 249 197 226 240 263 235 237 232 206 194
69 59 44 56 63 46 33 29 31 25 24 17 33 29 22 13 12 350 354 348 354 359 339 338 337 341 343 328 18 357 335 333 326 321 315 311 325 354 337 323 314 304 287 275 257 256 267 268 261 258 260 261 261 246 229 240 236 253 228 217 221 213 201
73 70 55 57 56 44 40 37 21 9 6 1 15 11 24 30 17 2 358 352 0 348 347 345 344 340 329 306 336 1 332 324 329 326 321 316 332 2 330 317 315 309 301 301 287 262 275 284 286 272 258 250 244 240 233 221 224 232 249 240 239 239 220
84 64 69 66 72 52 33 35 20 6 352 1 3 4 8 25 18 10 354 3 349 335 336 333 331 330 327 315 276 330 328 330 319 315 318 314 337 343 329 317 313 305 297 286 303 337 329 334 328 307 288 279 283 295 313 269 240 225 223 218 217 224 217
102 98 93 87 83 65 53 54 12 353 7 5 2 3 357 5 12 356 357 344 326 327 325 316 322 335 335 331 318 301 320 322 315 311 311 309 330 328 320 317 322 327 335 8 33 21 11 3 3 352 336 319 291 278 267 255 270 256 234 231 238 237 235
100 99 97 101 92 86 95 51 22 33 13 353 355 355 345 358 6 349 340 323 331 327 319 336 340 336 326 322 322 310 290 299 305 306 305 311 310 296 288 304 320 345 2 10 11 19 11 359 353 341 335 335 331 319 300 279 247 247 240 239 242 248 249
122 129 129 117 124 117 76 47 54 15 13 339 340 336 347 342 343 336 331 332 321 315 320 317 307 306 312 315 316 314 302 282 275 284 294 303 303 306 315 309 326 359 357 360 346 344 350 352 342 321 314 303 309 308 313 312 290 265 250 244 260 256 258
136 123 110 116 109 82 76 69 53 351 346 340 3 12 6 2 359 355 351 343 340 337 331 321 320 318 316 312 310 305 296 268 294 303 294 310 339 336 336 335 341 336 327 327 323 327 324 319 313 301 296 300 290 295 304 309 308 307 350 348 350 338 330
149 129 118 104 89 89 95 80 329 344 25 38 29 19 11 6 356 349 345 336 334 333 331 324 318 315 307 299 297 297 296 279 260 271 310 326 331 339 332 325 318 311 293 257 231 263 289 292 285 277 273 278 289 298 303 295 292 286 307 308 311 315 313
111 108 102 93 90 107 98 310 66 52 47 40 28 22 14 355 340 329 319 317 313 313 311 313 313 311 304 303 300 294 298 291 300 325 334 339 330 318 307 296 298 289 283 284 267 265 255 193 242 267 285 287 275 265 260 268 272 291 304 313 323 318 303
137 111 94 88 86 316 71 59 56 50 40 33 21 21 359 339 335 336 340 336 330 326 313 296 290 289 290 294 294 299 303 310 301 276 274 280 278 294 315 313 309 297 275 252 262 260 266 265 256 268 265 222 271 275 254 259 273 286 298 310 311 308 305
111 113 119 134 160 88 70 62 58 54 37 21 16 359 339 348 357 357 337 331 341 345 338 326 303 281 279 277 273 278 288 292 288 269 255 258 265 309 306 298 298 296 298 290 269 274 273 265 271 282 293 288 243 254 290 270 262 300 311 305 306 307 310